www.pogodaiklimat.ru

Погода и климат >> Архив погоды >> Австралия >> Mackay Airport


ПОГОДА в Mackay Airport

  • Прогноз погоды в Mackay Airport
  • Монитор погоды в Mackay Airport
  • Климат города

АРХИВ ПОГОДЫ в Mackay Airport

Время (UTC), дата Ветер
(напр.,м/с)
 
Видим.   Явления Облачность Т
(С)
Тd
(С)
f
(%)
Тe
(С)
Тes
(С)
Комфортность P
(гПа)
Po
(гПа)
Тmin
(С)
Tmax
(С)
R
(мм)
R24
(мм)
S
(см)
23 11.11 ЮВ 8 н/о 1/1 1000 м
[]
+28.7 +17.9 52 +33 +35 очень
душно
1017.5 1016.9
02 12.11 ЮВ 8 н/о 5/5 600 м
[]
+27.1 +19.4 63 +33 +35 очень
душно
1016.5 1015.9 +24.2
05 12.11 ЮВ 8 н/о н/о +28.7 +18.5 54 +34 +34 очень
душно
1014.2 1013.6
08 12.11 В 6 н/о н/о +25.3 +17.2 61 +29 +29 душно 1015.1 1014.5
11 12.11 ЮВ 6 н/о н/о +24.2 +16.7 63 +28 +28 душно 1016.4 1015.8
14 12.11 ЮВ 6 н/о 1/1 1000 м
[]
+24.2 +17.2 65 +28 +28 душно 1015.6 1015.0 +30.6
17 12.11 З 3 н/о 10/10 600 м
[]
+20.1 +16.1 78 +23 +23 комфорт 1014.6 1014.0
20 12.11 ЮЗ 4 н/о 1/1 600 м
[]
+20.0 +17.6 86 +23 +23 комфорт 1015.3 1014.7
23 12.11 ЮВ 8 н/о 1/1 600 м
[]
+27.6 +18.0 56 +32 +34 очень
душно
1016.3 1015.7
02 13.11 ЮВ 8 н/о 3/3 1500 м
[]
+27.3 +19.1 61 +33 +35 очень
душно
1015.3 1014.7 +18.8
05 13.11 ЮВ 8 н/о 10/10 600 м
[]
+28.4 +20.9 64 +36 +36 очень
душно
1013.0 1012.4
08 13.11 ЮВ 7 н/о 4/4 600 м
[]
+25.5 +20.1 72 +31 +31 очень
душно
1013.2 1012.6
11 13.11 В 5 н/о 10/10 600 м
[]
+25.1 +19.9 73 +31 +31 очень
душно
1014.9 1014.3
14 13.11 В 6 н/о 10/10 600 м
[]
+24.9 +19.9 74 +30 +30 душно 1014.1 1013.5 +30.3
17 13.11 В 6 н/о 10/10 600 м
[]
+24.9 +19.5 72 +30 +30 душно 1013.3 1012.7
20 13.11 В 5 н/о н/о +25.5 +18.9 67 +30 +30 душно 1015.1 1014.5
23 13.11 В 6 н/о 1/1 600 м
[]
+28.1 +18.2 55 +33 +38 очень
душно
1016.0 1015.4
02 14.11 В 6 н/о н/о +29.0 +18.7 54 +34 +34 очень
душно
1015.0 1014.4 +24.5
05 14.11 В 7 н/о 1/0
[]
+28.5 +17.7 52 +33 +37 очень
душно
1013.6 1013.0
08 14.11 В 5 н/о н/о +26.2 +18.3 62 +31 +31 очень
душно
1014.6 1014.0
11 14.11 В 4 н/о 1/1 600 м
[]
+25.2 +19.3 70 +30 +30 душно 1015.9 1015.3
14 14.11 В 4 н/о 1/1 600 м
[]
+24.7 +19.3 72 +30 +30 очень
душно
1015.0 1014.4 +30.5
17 14.11 З 3 н/о 9/9 600 м
[]
+20.7 +18.3 86 +25 +25 комфорт 1013.9 1013.3
20 14.11 СЗ 3 н/о 4/4 600 м
[]
+21.2 +18.8 86 +26 +26 душно 1015.9 1015.3
23 14.11 В 4 н/о н/о +27.8 +19.3 60 +33 +33 очень
душно
1017.3 1016.7
02 15.11 В 7 н/о н/о +29.6 +19.9 56 +36 +36 очень
душно
1015.8 1015.2 +19.8
05 15.11 В 7 н/о 3/0
[]
+28.9 +19.2 56 +34 +37 очень
душно
1014.3 1013.7
08 15.11 В 6 н/о н/о +26.3 +19.4 66 +32 +32 очень
душно
1014.7 1014.1
11 15.11 В 4 н/о 1/1 600 м
[]
+25.1 +20.1 74 +31 +31 очень
душно
1016.1 1015.5
14 15.11 З 2 н/о 1/1 600 м
[]
+22.0 +18.6 81 +27 +27 душно 1015.6 1015.0 +30.8
17 15.11 З 2 н/о 3/3 600 м
[]
+20.5 +18.6 89 +25 +25 комфорт 1014.2 1013.6
20 15.11 З 3 н/о н/о +20.8 +19.1 90 +26 +26 душно 1015.5 1014.9
23 15.11 В 3 н/о н/о +27.5 +18.5 58 +32 +32 очень
душно
1016.0 1015.4
02 16.11 В 5 н/о н/о +28.5 +18.6 55 +34 +34 очень
душно
1014.9 1014.3 +19.3
05 16.11 В 6 н/о н/о +28.3 +18.4 55 +33 +33 очень
душно
1013.0 1012.4
08 16.11 В 5 н/о н/о +26.1 +18.8 64 +31 +31 очень
душно
1013.2 1012.6
11 16.11 В 4 н/о 1/1 600 м
[]
+24.9 +19.1 70 +30 +30 душно 1014.7 1014.1
14 16.11 З 3 н/о 1/1 600 м
[]
+20.9 +18.1 84 +26 +26 душно 1013.9 1013.3 +30.5
17 16.11 З 3 н/о 3/3 600 м
[]
+19.3 +17.6 90 +22 +22 комфорт 1012.6 1012.0
20 16.11 З 3 н/о 1/1 600 м
[]
+20.0 +18.5 91 +24 +24 комфорт 1013.9 1013.3
23 16.11 В 5 н/о 1/1 600 м
[]
+28.0 +17.8 54 +32 +39 душно 1014.9 1014.3
02 17.11 В 5 н/о н/о +28.8 +18.0 52 +33 +33 очень
душно
1014.2 1013.6 +18.7
05 17.11 В 5 н/о 1/0
[]
+29.2 +18.0 51 +34 +40 очень
душно
1012.0 1011.4
08 17.11 В 5 н/о н/о +26.4 +18.5 62 +31 +31 душно 1012.0 1011.4
11 17.11 СВ 3 н/о н/о +24.9 +19.5 72 +30 +30 душно 1013.4 1012.8
14 17.11 ЮЗ 3 н/о н/о +20.5 +18.3 87 +25 +25 комфорт 1013.6 1013.0 +30.4
17 17.11 З 2 н/о 8/0
[]
+20.4 +18.5 89 +25 +25 комфорт 1011.7 1011.1
20 17.11 З 2 н/о 6/6 1000 м
[]
+21.4 +19.0 86 +26 +26 душно 1013.7 1013.1
23 17.11 В 7 н/о 4/4 600 м
[]
+29.0 +20.7 61 +36 +38 очень
душно
1014.6 1014.0
02 18.11 В 6 н/о н/о +29.6 +20.7 59 +37 +37 очень
душно
1013.6 1013.0 +19.5
05 18.11 В 5 н/о н/о +28.9 +20.9 62 +36 +36 очень
душно
1012.4 1011.8
08 18.11 В 6 н/о н/о +26.7 +19.8 66 +33 +33 очень
душно
1012.5 1011.9
11 18.11 СВ 4 н/о 1/1 600 м
[]
+26.0 +19.6 68 +32 +32 очень
душно
1014.4 1013.8
14 18.11 В 5 н/о 10/10 600 м
[]
+25.8 +19.9 70 +32 +32 очень
душно
1014.5 1013.9 +31.1
17 18.11 ЮВ 6 н/о 10/10 600 м
[]
+25.3 +19.2 69 +30 +30 душно 1014.1 1013.5
20 18.11 В 4 н/о 10/10 600 м
[]
+25.7 +19.1 67 +31 +31 очень
душно
1014.7 1014.1

 

Местоположение метеостанции Mackay Airport (Квинсленд, Австралия): широта -21.17 долгота 149.18 высота над уровнем моря 6 м.

В архиве по умолчанию представлена погода в Mackay Airport за последнюю неделю. Архивные данные за месяц целиком и за предыдущие месяцы, начиная с января 2011 года, Вы можете получить, выбрав интересующий диапазон дат из раскрывающегося списка и нажав кнопку "Ввод!".


*Определитесь, кто Вы:
робот инопланетянин человек

Внимание! Время в таблицах - всемирное. Для получения местного времени необходимо прибавить поправку, которая в Mackay Airport равна 10 ч.

Смотрите также архив погоды в соседних городах и на ближайших метеорологических станциях:

Погода в Mackay Mo (Квинсленд, Австралия) (7 км)
Погода в Hamilton Island Airport (Квинсленд, Австралия) (94 км)
Погода в Proserpine Airport (Квинсленд, Австралия) (101 км)
Погода в Middle Percy Island (Квинсленд, Австралия) (126 км)
Погода в St Lawrence (Квинсленд, Австралия) (136 км)
Погода в Creal Reef (Квинсленд, Австралия) (144 км)
Погода в Williamson (Квинсленд, Австралия) (178 км)
Погода в Samuel Hill Aero (Квинсленд, Австралия) (230 км)
Погода в Clermont Airport (Квинсленд, Австралия) (240 км)
Погода в Ayr Dpi Research Station (Квинсленд, Австралия) (255 км)

Пояснения к столбцам:

Ветер - указаны скорость ветра в м/с - средняя за 10 мин, порывы в срок и между сроками (в фигурных скобках) и направление, откуда дует ветер: С - северный, СВ - северо-восточный, В - восточный, ЮВ - юго-восточный, Ю - южный, ЮЗ - юго-западный, З - западный, СЗ - северо-западный.
Видимость - горизонтальная дальность видимости в метрах или километрах. При видимости от 1 до 10 км при отсутствии осадков обычно наблюдается дымка, при ухудшении видимости до 1 км и менее - туман. В сухую погоду видимость может ухудшаться дымом, пылью или мглою.
Явления - указаны атмосферные явления, наблюдавшиеся в срок или в последний час перед сроком; фигурными скобками обозначены явления, наблюдавшиеся между сроками (за 1-3 часа до срока); квадратными скобками обозначены град или гололедные отложения с указанием их диаметра в мм.
Облачность - указаны через наклонную черту общая и нижняя облачность в баллах и высота нижней границы облаков в метрах; квадратными скобками обозначены формы облаков: Ci - перистые, Cs - перисто-слоистые, Cc - перисто-кучевые, Ac - высококучевые, As - высокослоистые, Sc - слоисто-кучевые, Ns - слоисто-дождевые, Cu - кучевые, Cb - кучево-дождевые. Подробнее классификацию облаков см. в Атласе облаков (PDF).
T - Температура воздуха - температура, измеренная на высоте 2 м над землей.
Td - Температура точки росы - температура, при понижении до которой содержащийся в воздухе водяной пар достигнет насыщения.
f - Относительная влажность воздуха - влажноcть воздуха, измеренная на высоте 2 м над землей.
Te - Эффективная температура - температура, которую ощущает одетый по сезону человек в тени. Характеристика душности погоды. При расчете учитывается влияние влажности воздуха и скорости ветра на теплоощущения человека.
Tes - Эффективная температура на солнце - температура, которую ощущает человек, с поправкой на солнечный нагрев. Характеристика знойности погоды. Зависит от высоты солнца над горизонтом, облачности и скорости ветра. Ночью, в пасмурную погоду, а также при ветре 12 м/с и более поправка равна нулю.
P - Атмосферное давление - приведенное к уровню моря атмосферное давление.
Po - Атмосферное давление - измеренное на уровне метеостанции атмосферное давление.
Tmin - Минимальная температура - минимум температуры воздуха на высоте 2 м над землей.
Tmax - Максимальная температура - максимум температуры воздуха на высоте 2 м над землей.
R - Количество осадков - Количество выпавших осадков за период времени, мм. При наведении курсора мыши на число - период времени, за который выпало указанное количество осадков.
R24 - Количество осадков - Количество выпавших осадков за 24 часа, мм.
S - Снежный покров - Высота снежного покрова, см. При наведении курсора мыши на число - состояние снежного покрова и степень покрытия местности в баллах.